Time,TemperatureF,DewpointF,PressureIn,WindDirection,WindDirectionDegrees,WindSpeedMPH,WindSpeedGustMPH,Humidity,HourlyPrecipIn,Conditions,Clouds,dailyrainin,SoftwareType,DateUTC
2013-06-30 00:03:00,68.3,60.0,29.79,WNW,295,0.0,5.0,75,0.00,,,0.00,weatherlink.com 1.10,2013-06-30 05:03:00,
2013-06-30 00:18:00,68.2,59.0,29.79,NNW,340,0.0,7.0,73,0.00,,,0.00,weatherlink.com 1.10,2013-06-30 05:18:00,
2013-06-30 00:33:00,68.4,58.0,29.80,WNW,288,4.0,6.0,70,0.00,,,0.00,weatherlink.com 1.10,2013-06-30 05:33:00,
2013-06-30 00:48:00,68.3,58.0,29.80,NW,326,2.0,8.0,70,0.00,,,0.00,weatherlink.com 1.10,2013-06-30 05:48:00,
2013-06-30 01:03:00,67.9,58.0,29.81,WSW,248,2.0,5.0,70,0.00,,,0.00,weatherlink.com 1.10,2013-06-30 06:03:00,
2013-06-30 01:18:00,67.5,58.0,29.81,West,271,1.0,6.0,71,0.00,,,0.00,weatherlink.com 1.10,2013-06-30 06:18:00,
2013-06-30 01:33:00,67.2,57.0,29.81,WNW,295,0.0,8.0,71,0.00,,,0.00,weatherlink.com 1.10,2013-06-30 06:33:00,
2013-06-30 01:48:00,66.7,57.0,29.81,WNW,301,0.0,2.0,71,0.00,,,0.00,weatherlink.com 1.10,2013-06-30 06:48:00,
2013-06-30 02:03:00,66.2,57.0,29.81,WNW,297,2.0,4.0,72,0.00,,,0.00,weatherlink.com 1.10,2013-06-30 07:03:00,
2013-06-30 02:18:00,65.9,56.0,29.81,WNW,297,0.0,4.0,71,0.00,,,0.00,weatherlink.com 1.10,2013-06-30 07:18:00,
2013-06-30 02:33:00,65.5,56.0,29.81,NW,306,0.0,7.0,71,0.00,,,0.00,weatherlink.com 1.10,2013-06-30 07:33:00,
2013-06-30 02:48:00,65.3,56.0,29.81,NW,311,0.0,5.0,71,0.00,,,0.00,weatherlink.com 1.10,2013-06-30 07:48:00,
2013-06-30 03:03:00,65.1,56.0,29.81,NW,316,0.0,7.0,72,0.00,,,0.00,weatherlink.com 1.10,2013-06-30 08:03:00,
2013-06-30 03:18:00,64.8,56.0,29.81,WSW,253,0.0,6.0,73,0.00,,,0.00,weatherlink.com 1.10,2013-06-30 08:18:00,
2013-06-30 03:33:00,64.5,56.0,29.82,WNW,293,0.0,5.0,74,0.00,,,0.00,weatherlink.com 1.10,2013-06-30 08:33:00,
2013-06-30 03:48:00,64.3,56.0,29.82,NW,311,0.0,5.0,75,0.00,,,0.00,weatherlink.com 1.10,2013-06-30 08:48:00,
2013-06-30 04:03:00,64.2,56.0,29.83,SW,218,2.0,6.0,75,0.00,,,0.00,weatherlink.com 1.10,2013-06-30 09:03:00,
2013-06-30 04:18:00,64.0,56.0,29.83,West,274,2.0,4.0,75,0.00,,,0.00,weatherlink.com 1.10,2013-06-30 09:18:00,
2013-06-30 04:33:00,63.7,56.0,29.83,NNW,337,0.0,4.0,76,0.00,,,0.00,weatherlink.com 1.10,2013-06-30 09:33:00,
2013-06-30 04:48:00,63.4,56.0,29.83,East,91,0.0,3.0,77,0.00,,,0.00,weatherlink.com 1.10,2013-06-30 09:48:00,
2013-06-30 05:03:00,63.3,56.0,29.84,WNW,300,0.0,2.0,77,0.00,,,0.00,weatherlink.com 1.10,2013-06-30 10:03:00,
2013-06-30 05:18:00,63.0,56.0,29.84,WNW,301,0.0,4.0,77,0.00,,,0.00,weatherlink.com 1.10,2013-06-30 10:18:00,
2013-06-30 05:33:00,62.7,56.0,29.84,WNW,297,0.0,3.0,78,0.00,,,0.00,weatherlink.com 1.10,2013-06-30 10:33:00,
2013-06-30 05:48:00,62.6,56.0,29.85,West,280,2.0,2.0,78,0.00,,,0.00,weatherlink.com 1.10,2013-06-30 10:48:00,
2013-06-30 06:03:00,62.4,56.0,29.85,SSW,203,1.0,1.0,79,0.00,,,0.00,weatherlink.com 1.10,2013-06-30 11:03:00,
2013-06-30 06:18:00,62.7,56.0,29.85,NE,56,0.0,1.0,79,0.00,,,0.00,weatherlink.com 1.10,2013-06-30 11:18:00,
2013-06-30 06:33:00,62.6,56.0,29.86,NW,325,0.0,3.0,80,0.00,,,0.00,weatherlink.com 1.10,2013-06-30 11:33:00,
2013-06-30 06:48:00,63.0,57.0,29.87,NW,311,0.0,1.0,80,0.00,,,0.00,weatherlink.com 1.10,2013-06-30 11:48:00,
2013-06-30 07:03:00,63.2,57.0,29.87,NW,321,0.0,2.0,79,0.00,,,0.00,weatherlink.com 1.10,2013-06-30 12:03:00,
2013-06-30 07:18:00,63.5,57.0,29.87,NW,310,1.0,5.0,78,0.00,,,0.00,weatherlink.com 1.10,2013-06-30 12:18:00,
2013-06-30 07:33:00,64.0,57.0,29.88,NNW,328,0.0,5.0,77,0.00,,,0.00,weatherlink.com 1.10,2013-06-30 12:33:00,
2013-06-30 07:49:00,64.7,57.0,29.88,NNW,336,1.0,3.0,77,0.00,,,0.00,weatherlink.com 1.10,2013-06-30 12:49:00,
2013-06-30 08:04:00,65.5,58.0,29.88,WSW,245,0.0,1.0,76,0.00,,,0.00,weatherlink.com 1.10,2013-06-30 13:04:00,
2013-06-30 08:19:00,66.0,58.0,29.88,WNW,295,0.0,3.0,75,0.00,,,0.00,weatherlink.com 1.10,2013-06-30 13:19:00,
2013-06-30 08:34:00,66.8,58.0,29.89,WNW,290,3.0,5.0,74,0.00,,,0.00,weatherlink.com 1.10,2013-06-30 13:34:00,
2013-06-30 08:49:00,68.3,59.0,29.89,East,90,0.0,3.0,71,0.00,,,0.00,weatherlink.com 1.10,2013-06-30 13:49:00,
2013-06-30 09:04:00,69.6,59.0,29.89,NNW,329,0.0,5.0,68,0.00,,,0.00,weatherlink.com 1.10,2013-06-30 14:04:00,
2013-06-30 09:19:00,70.4,60.0,29.89,SW,214,0.0,4.0,70,0.00,,,0.00,weatherlink.com 1.10,2013-06-30 14:19:00,
2013-06-30 09:34:00,71.4,59.0,29.89,West,280,2.0,3.0,66,0.00,,,0.00,weatherlink.com 1.10,2013-06-30 14:34:00,
2013-06-30 09:49:00,72.8,61.0,29.89,NNE,13,0.0,8.0,66,0.00,,,0.00,weatherlink.com 1.10,2013-06-30 14:49:00,
2013-06-30 10:04:00,73.9,60.0,29.89,NW,326,4.0,7.0,63,0.00,,,0.00,weatherlink.com 1.10,2013-06-30 15:04:00,
2013-06-30 10:19:00,73.2,60.0,29.90,WNW,297,0.0,5.0,64,0.00,,,0.00,weatherlink.com 1.10,2013-06-30 15:19:00,
2013-06-30 10:34:00,74.2,61.0,29.90,NW,316,3.0,8.0,63,0.00,,,0.00,weatherlink.com 1.10,2013-06-30 15:34:00,
2013-06-30 10:49:00,74.0,61.0,29.90,NW,326,0.0,9.0,64,0.00,,,0.00,weatherlink.com 1.10,2013-06-30 15:49:00,
2013-06-30 11:04:00,75.2,58.0,29.90,WNW,285,2.0,10.0,55,0.00,,,0.00,weatherlink.com 1.10,2013-06-30 16:04:00,
2013-06-30 11:19:00,74.9,59.0,29.89,WNW,294,3.0,5.0,57,0.00,,,0.00,weatherlink.com 1.10,2013-06-30 16:19:00,
2013-06-30 11:34:00,74.2,57.0,29.89,WNW,297,2.0,8.0,56,0.00,,,0.00,weatherlink.com 1.10,2013-06-30 16:34:00,
2013-06-30 11:49:00,76.2,57.0,29.89,NW,322,1.0,8.0,51,0.00,,,0.00,weatherlink.com 1.10,2013-06-30 16:49:00,
2013-06-30 12:04:00,76.7,57.0,29.89,NW,305,1.0,9.0,51,0.00,,,0.00,weatherlink.com 1.10,2013-06-30 17:04:00,
2013-06-30 12:19:00,76.1,56.0,29.89,WNW,295,6.0,11.0,50,0.00,,,0.00,weatherlink.com 1.10,2013-06-30 17:19:00,
2013-06-30 12:34:00,76.2,57.0,29.89,West,267,4.0,7.0,52,0.00,,,0.00,weatherlink.com 1.10,2013-06-30 17:34:00,
2013-06-30 12:49:00,76.9,56.0,29.89,West,278,3.0,9.0,48,0.00,,,0.00,weatherlink.com 1.10,2013-06-30 17:49:00,
2013-06-30 13:04:00,76.9,57.0,29.89,NW,317,0.0,5.0,51,0.00,,,0.00,weatherlink.com 1.10,2013-06-30 18:04:00,
2013-06-30 13:19:00,76.5,59.0,29.89,NW,305,0.0,6.0,54,0.00,,,0.00,weatherlink.com 1.10,2013-06-30 18:19:00,
2013-06-30 13:34:00,77.9,58.0,29.89,NW,321,0.0,7.0,51,0.00,,,0.00,weatherlink.com 1.10,2013-06-30 18:34:00,
2013-06-30 13:49:00,77.1,59.0,29.89,NW,309,0.0,5.0,54,0.00,,,0.00,weatherlink.com 1.10,2013-06-30 18:49:00,
2013-06-30 14:04:00,78.0,57.0,29.89,NW,325,0.0,9.0,49,0.00,,,0.00,weatherlink.com 1.10,2013-06-30 19:04:00,
2013-06-30 14:19:00,78.5,58.0,29.89,West,272,1.0,8.0,49,0.00,,,0.00,weatherlink.com 1.10,2013-06-30 19:19:00,
2013-06-30 14:34:00,77.8,59.0,29.89,West,270,3.0,8.0,53,0.00,,,0.00,weatherlink.com 1.10,2013-06-30 19:34:00,
2013-06-30 14:49:00,77.6,59.0,29.88,South,179,0.0,11.0,53,0.00,,,0.00,weatherlink.com 1.10,2013-06-30 19:49:00,
2013-06-30 15:04:00,77.7,58.0,29.89,WNW,283,0.0,7.0,50,0.00,,,0.00,weatherlink.com 1.10,2013-06-30 20:04:00,
2013-06-30 15:19:00,77.8,58.0,29.89,WNW,287,0.0,7.0,51,0.00,,,0.00,weatherlink.com 1.10,2013-06-30 20:19:00,
2013-06-30 15:34:00,78.3,59.0,29.88,NE,36,0.0,5.0,51,0.00,,,0.00,weatherlink.com 1.10,2013-06-30 20:34:00,
2013-06-30 15:49:00,78.5,58.0,29.88,NNW,331,3.0,5.0,49,0.00,,,0.00,weatherlink.com 1.10,2013-06-30 20:49:00,
2013-06-30 16:05:00,78.1,59.0,29.89,West,280,0.0,5.0,53,0.00,,,0.00,weatherlink.com 1.10,2013-06-30 21:05:00,
2013-06-30 16:20:00,77.9,59.0,29.88,NW,315,3.0,6.0,52,0.00,,,0.00,weatherlink.com 1.10,2013-06-30 21:20:00,
2013-06-30 16:35:00,77.6,59.0,29.88,NW,304,0.0,8.0,53,0.00,,,0.00,weatherlink.com 1.10,2013-06-30 21:35:00,
2013-06-30 16:50:00,77.9,58.0,29.88,NNW,345,1.0,11.0,51,0.00,,,0.00,weatherlink.com 1.10,2013-06-30 21:50:00,
2013-06-30 17:05:00,78.2,59.0,29.88,WNW,288,0.0,9.0,52,0.00,,,0.00,weatherlink.com 1.10,2013-06-30 22:05:00,
2013-06-30 17:20:00,77.5,58.0,29.88,NW,304,1.0,11.0,51,0.00,,,0.00,weatherlink.com 1.10,2013-06-30 22:20:00,
2013-06-30 17:35:00,76.9,58.0,29.89,NNE,21,0.0,4.0,52,0.00,,,0.00,weatherlink.com 1.10,2013-06-30 22:35:00,
2013-06-30 17:50:00,76.2,58.0,29.88,NNW,331,0.0,2.0,53,0.00,,,0.00,weatherlink.com 1.10,2013-06-30 22:50:00,
2013-06-30 18:05:00,76.8,59.0,29.89,SE,136,0.0,6.0,54,0.00,,,0.00,weatherlink.com 1.10,2013-06-30 23:05:00,
2013-06-30 18:20:00,76.4,57.0,29.89,South,184,0.0,9.0,52,0.00,,,0.00,weatherlink.com 1.10,2013-06-30 23:20:00,
2013-06-30 18:35:00,76.6,58.0,29.89,SE,129,0.0,6.0,53,0.00,,,0.00,weatherlink.com 1.10,2013-06-30 23:35:00,
2013-06-30 18:50:00,76.7,57.0,29.88,ESE,118,0.0,6.0,51,0.00,,,0.00,weatherlink.com 1.10,2013-06-30 23:50:00,
2013-06-30 19:05:00,76.8,57.0,29.88,NW,309,1.0,5.0,51,0.00,,,0.00,weatherlink.com 1.10,2013-07-01 00:05:00,
2013-06-30 19:20:00,77.4,58.0,29.89,North,6,0.0,2.0,51,0.00,,,0.00,weatherlink.com 1.10,2013-07-01 00:20:00,
2013-06-30 19:35:00,76.8,58.0,29.89,NNE,19,0.0,2.0,52,0.00,,,0.00,weatherlink.com 1.10,2013-07-01 00:35:00,
2013-06-30 19:50:00,76.2,58.0,29.89,WNW,290,0.0,6.0,53,0.00,,,0.00,weatherlink.com 1.10,2013-07-01 00:50:00,
2013-06-30 20:05:00,75.1,58.0,29.90,SSW,194,0.0,1.0,55,0.00,,,0.00,weatherlink.com 1.10,2013-07-01 01:05:00,
2013-06-30 20:20:00,74.3,57.0,29.90,West,270,0.0,0.0,56,0.00,,,0.00,weatherlink.com 1.10,2013-07-01 01:20:00,
2013-06-30 20:35:00,73.5,57.0,29.91,North,8,0.0,1.0,57,0.00,,,0.00,weatherlink.com 1.10,2013-07-01 01:35:00,
2013-06-30 20:50:00,72.9,58.0,29.91,ENE,72,1.0,2.0,59,0.00,,,0.00,weatherlink.com 1.10,2013-07-01 01:50:00,
2013-06-30 21:05:00,72.6,57.0,29.91,SSW,197,0.0,3.0,59,0.00,,,0.00,weatherlink.com 1.10,2013-07-01 02:05:00,
2013-06-30 21:20:00,72.5,57.0,29.91,WNW,294,0.0,2.0,59,0.00,,,0.00,weatherlink.com 1.10,2013-07-01 02:20:00,
2013-06-30 21:35:00,71.9,57.0,29.92,SE,124,0.0,1.0,60,0.00,,,0.00,weatherlink.com 1.10,2013-07-01 02:35:00,
2013-06-30 21:50:00,71.7,57.0,29.93,North,4,0.0,1.0,60,0.00,,,0.00,weatherlink.com 1.10,2013-07-01 02:50:00,
2013-06-30 22:05:00,71.0,57.0,29.94,WNW,286,0.0,1.0,62,0.00,,,0.00,weatherlink.com 1.10,2013-07-01 03:05:00,
2013-06-30 22:20:00,70.9,58.0,29.94,NW,322,0.0,2.0,63,0.00,,,0.00,weatherlink.com 1.10,2013-07-01 03:20:00,
2013-06-30 22:35:00,70.4,58.0,29.94,NW,314,0.0,1.0,64,0.00,,,0.00,weatherlink.com 1.10,2013-07-01 03:35:00,
2013-06-30 23:05:00,69.0,57.0,29.95,West,266,0.0,0.0,66,0.00,,,0.00,weatherlink.com 1.10,2013-07-01 04:05:00,
2013-06-30 23:20:00,68.5,57.0,29.95,WSW,253,0.0,0.0,67,0.00,,,0.00,weatherlink.com 1.10,2013-07-01 04:20:00,
2013-06-30 23:35:00,67.6,57.0,29.95,WSW,252,0.0,0.0,68,0.00,,,0.00,weatherlink.com 1.10,2013-07-01 04:35:00,
2013-06-30 23:50:00,67.4,57.0,29.95,North,351,0.0,1.0,69,0.00,,,0.00,weatherlink.com 1.10,2013-07-01 04:50:00,